Regional Weather Roundup
Issued by NWS Green Bay, WI

Home | Current Version | Previous Version | Text Only | Print | Product List | Glossary On
Versions: 1 2 3 4 5 6 7 8 9 10 11 12 13 14 15 16 17 18 19 20 21 22 23 24 25 26 27 28 29 30 31 32 33 34 35 36 37 38 39 40 41 42 43 44 45 46 47 48 49 50
000
ASUS43 KGRB 010300
RWRGRB

NORTH-CENTRAL AND NORTHEAST WISCONSIN REGIONAL WEATHER ROUNDUP
NATIONAL WEATHER SERVICE GREEN BAY WI
1000 PM CDT FRI SEP 30 2016

WIZ005-009-010>012-018-019-010400-
NORTH CENTRAL WISCONSIN

CITY           SKY/WX    TMP DP  RH WIND       PRES   REMARKS
IRONWOOD       FOG       54  54 100 CALM      30.28F VSB 1/4
MANITOWISH WTR NOT AVBL
ARBOR VITAE    NOT AVBL
EAGLE RIVER    NOT AVBL
LAND O LAKES   NOT AVBL
RHINELANDER    CLEAR     58  49  72 NE8       30.26S
PHILLIPS       NOT AVBL
ANTIGO         NOT AVBL
TOMAHAWK       NOT AVBL
MERRILL        NOT AVBL
$$

WIZ013-073-010400-
NORTHEAST WISCONSIN

CITY           SKY/WX    TMP DP  RH WIND       PRES   REMARKS
IRON MOUNTAIN  CLOUDY    55  50  83 N6        30.25S
MARINETTE      CLOUDY    63  55  75 E17       30.21F
$$

WIZ017-030-035>037-045-010400-
CENTRAL WISCONSIN

CITY           SKY/WX    TMP DP  RH WIND       PRES   REMARKS
MEDFORD        NOT AVBL
WAUSAU         CLOUDY    60  51  72 NE6       30.20S
MOSINEE        CLOUDY    61  54  77 NE10      30.22S
MARSHFIELD     CLOUDY    62  52  69 NE8       30.20R
WISC RAPIDS    CLOUDY    61  54  77 E8        30.20S
STEVENS POINT  NOT AVBL
WAUPACA        NOT AVBL
SHAWANO        NOT AVBL
CLINTONVILLE   NOT AVBL
WAUTOMA        CLOUDY    57  56  96 N7        30.18F
$$

WIZ038-039-048-051-010400-
FOX VALLEY

CITY           SKY/WX    TMP DP  RH WIND       PRES   REMARKS
NWS GREEN BAY  CLOUDY    62  60  93 NE14      30.18S
APPLETON       LGT RAIN  59  59 100 NE13      30.16F
OSHKOSH        RAIN      60  57  89 NE16      30.15S FOG
FOND DU LAC    LGT RAIN  61  59  93 NE14      30.14F
$$

WIZ022-050-052-010400-
EAST CENTRAL WISCONSIN

CITY           SKY/WX    TMP DP  RH WIND       PRES   REMARKS
EPHRAIM        NOT AVBL
WASHINGTON ISL NOT AVBL
STURGEON BAY   CLOUDY    62  57  83 E12G18    30.20S
MANITOWOC      NOT AVBL
SHEBOYGAN      HVY RAIN  60  59  96 NE13      30.14F FOG
$$

LMZ563-521-522-541>543-010400-
LAKESHORE

STATION/POSITION TIME  TEMP    WIND        PRES    VSBY  WAVE
                       AIR SEA DIR/SP/G                  HT/PER
                 (UTC) (F)     (DEG/KT/KT) (MB)    (MI)  (FT/S)
SHEBOYGAN LKSHOR 0200   61      60/ 15/ 17 1020.5F
KEWAUNEE LKSHORE 0200   63      40/  9/ 14 1021.1F
NORTHPORT PIER   0200   64      80/ 15/ 23 1023.0F
N MID LAKE BUOY  0150   64 65   90/ 21/ 25 1022.3F         5/ 5
SISTER BAY LKSHO 0208   64     120/ 12/ 21   N/A
CHAMBERS ISLAND  0200   63      40/ 14/ 18 1022.7F
MENOMINEE LKSHOR 0200   63      40/ 18/ 22 1022.1F
$$



USA.gov is the U.S. government's official web portal to all federal, state and local government web resources and services.